FENGYUN 1C DEB, 35102

Orbit data source: Space-Track

FENGYUN 1C DEB, 35102 is space debris in SSO originally from a launch on Mon, 10 May 1999 UTC launched from the Taiyaun Space Center, China (TSC). Fengyun 1C debris stems from the Chinese weather satellite Fengyun-1C, which was intentionally destroyed by a Chinese anti-satellite missile in 2007. This event dramatically increased the amount of space debris, with thousands of trackable fragments posing hazards to satellites and human spaceflight. The Fengyun 1C debris cloud has become a focal point in discussions about space sustainability and the need for international regulations to prevent the creation of new debris.

Loading next visibility...
Identifier
35102, 1999-025DKE
Orbit
SSO
Country
Flag of CNCN / PRC
Related business
Manufacturer
Unknown
Mission
Spacecraft
Bus & Motor
Unknown
Mass
Unknown
Launch date (UTC)
1999-05-10 (27 years ago)
Launch vehicle
Unknown
Launch site
Taiyaun Space Center, China (TSC)
Object type
Payload
Rocket body
Debris
Shape & HBR
Unknown shape, 0.1 m
Radar Cross Section
Small (<0.1 m²)

Expand to show TLE details & history
Last TLE update: 3 days ago

TLE from 3 days ago
0 FENGYUN 1C DEB
1 35102U 99025DKE 26147.98360373  .00000982  00000-0  39547-3 0  9995
2 35102  98.4748 158.7415 0058698 323.3177  36.3993 14.29317377672873
Epoch: 2026-05-27T23:36Z
TLE epoch observation values (Epoch: 2026-05-27T23:36:23.362Z)
Latitude
-0.00006°
Longitude
-80.89069°
Altitude
763.143 km
Speed
7.49 km/s
True Right ascension
10h 34m 57s
True Declination
0° 00' 00"
Sunlit
Object was in daylight at epoch
Visualization orbit readout
Latitude
Unknown
Longitude
Unknown
Altitude
Unknown
Speed
Unknown
Apparent Right ascension
Unknown
Apparent Declination
Unknown
Sunlit
N/A
Visualization observer readout
Local Sidereal Time
21:57:26
Azimuth
Unknown
Elevation
Unknown
Doppler factor
Unknown
Orbital elements
Apogee altitude
833.231 km
Perigee altitude
749.066 km
Semi-major axis
7,169.285 km
Eccentricity
0.00587
Inclination
98.4748°
RAAN
158.7415°
Arg. of periapsis
323.3177°
True anomaly
36.80081°
Mean anomaly
36.3993°
Eccentric anomaly
36.59982°
Mean motion
3.57544 °/min
Orbital period
100.69 mins
BSTAR
0.00039547
Loading maneuver chart data...
Computing Atmospheric mass density...
Loading historical data...
Loading historical data...
Loading historical data...
Loading historical data...
Loading historical data...
Loading historical data...
Loading historical data...

Documentation

Showing up to 5 results
|